Weather History for Newport Airport, OR

Change the Weather History Date:

Wednesday, July 24, 2013

  Actual Average Record
Temperature  
Mean Temperature 52 °F -  
Max Temperature 57 °F 62 °F 68 °F (2004)
Min Temperature 48 °F 52 °F 42 °F (2008)
Degree Days  
Heating Degree Days 12    
Growing Degree Days 2 (Base 50)    
Moisture  
Dew Point 50 °F    
Average Humidity 93    
Maximum Humidity 100    
Minimum Humidity 82    
Precipitation  
Precipitation 0.00 in - - ()
Sea Level Pressure  
Sea Level Pressure 30.09 in    
Wind  
Wind Speed 8 mph (NNW)    
Max Wind Speed 25 mph    
Max Gust Speed 36 mph    
Visibility 4 miles    
Events Fog    
Averages and records for this station are not official NWS values.
T = Trace of Precipitation, MM = Missing Value Source: NWS Daily Summary

Daily Weather History Graph

Daily Weather History Graph

Search for Another Location

Airport:

Trip Planner

Search our weather history database for the weather conditions in past years. The results will help you decide how hot, cold, wet, or windy it might be!

Date:

Astronomy

Jul. 24, 2013 Rise Set
Actual Time 5:54 AM PDT 8:50 PM PDT
Civil Twilight 5:20 AM PDT 9:24 PM PDT
Nautical Twilight 4:36 AM PDT 10:08 PM PDT
Astronomical Twilight 3:44 AM PDT 10:59 PM PDT
Moon 9:49 PM PDT (7/24) 8:29 AM PDT (7/24)
Length of Visible Light 16h 04m
Length of Day
14h 55m
Waning Gibbous, 94% of the Moon is Illuminated
Jul 24
Waning Gibbous
Jul 29
Last Quarter
Aug 6
New
Aug 14
First Quarter
Aug 20
Full

Hourly Weather History & Observations

Time (PDT) Temp. Dew Point Humidity Pressure Visibility Wind Dir Wind Speed Gust Speed Precip Events Conditions
12:15 AM 50.0 °F 50.0 °F 100% 30.09 in 5.0 mi North 4.6 mph - N/A   Overcast
12:35 AM 50.0 °F 50.0 °F 100% 30.10 in 4.0 mi North 4.6 mph - N/A   Overcast
12:55 AM 50.0 °F 50.0 °F 100% 30.09 in 2.5 mi NNW 6.9 mph - N/A   Overcast
1:15 AM 50.0 °F 50.0 °F 100% 30.09 in 3.0 mi North 3.5 mph - N/A   Overcast
1:35 AM 50.0 °F 48.2 °F 94% 30.08 in 2.5 mi North 5.8 mph - N/A   Overcast
1:55 AM 50.0 °F 48.2 °F 94% 30.08 in 3.0 mi North 3.5 mph - N/A   Overcast
2:15 AM 50.0 °F 48.2 °F 94% 30.07 in 2.5 mi North 4.6 mph - N/A   Overcast
2:35 AM 50.0 °F 50.0 °F 100% 30.07 in 5.0 mi Calm Calm - N/A   Overcast
2:55 AM 50.0 °F 48.2 °F 94% 30.08 in 3.0 mi NNW 3.5 mph - N/A   Overcast
3:15 AM 50.0 °F 48.2 °F 94% 30.08 in 3.0 mi Calm Calm - N/A   Overcast
3:35 AM 50.0 °F 48.2 °F 94% 30.08 in 3.0 mi Calm Calm - N/A   Overcast
3:55 AM 50.0 °F 48.2 °F 94% 30.08 in 0.5 mi Calm Calm - N/A Fog Fog
4:15 AM 50.0 °F 48.2 °F 94% 30.09 in 0.5 mi NNW 3.5 mph - N/A Fog Fog
4:35 AM 50.0 °F 50.0 °F 100% 30.09 in 1.2 mi Calm Calm - N/A   Overcast
4:55 AM 50.0 °F 50.0 °F 100% 30.09 in 2.5 mi Calm Calm - N/A   Overcast
5:15 AM 50.0 °F 50.0 °F 100% 30.10 in 2.0 mi Calm Calm - N/A   Overcast
5:35 AM 50.0 °F 50.0 °F 100% 30.10 in 3.0 mi Calm Calm - N/A   Overcast
5:55 AM 50.0 °F 50.0 °F 100% 30.09 in 1.0 mi North 4.6 mph - N/A   Overcast
6:15 AM 48.2 °F 48.2 °F 100% 30.09 in 0.2 mi North 5.8 mph - N/A Fog Fog
6:35 AM 50.0 °F 50.0 °F 100% 30.09 in 1.5 mi North 3.5 mph - N/A   Overcast
6:55 AM 50.0 °F 50.0 °F 100% 30.10 in 7.0 mi NNE 3.5 mph - N/A   Overcast
7:15 AM 50.0 °F 50.0 °F 100% - 3.0 mi NE 4.6 mph - N/A   Overcast
7:35 AM 50.0 °F 50.0 °F 100% 30.10 in 5.0 mi NE 3.5 mph - N/A   Overcast
7:55 AM 50.0 °F 50.0 °F 100% 30.10 in 0.8 mi North 4.6 mph - N/A   Overcast
8:15 AM 50.0 °F 50.0 °F 100% 30.10 in 2.0 mi NNW 3.5 mph - N/A   Overcast
8:35 AM 50.0 °F 50.0 °F 100% 30.10 in 5.0 mi NNW 5.8 mph - N/A   Overcast
8:55 AM 50.0 °F 50.0 °F 100% 30.10 in 2.5 mi NNW 6.9 mph - N/A   Overcast
9:15 AM 51.8 °F 50.0 °F 94% 30.11 in 5.0 mi North 3.5 mph - N/A   Overcast
9:35 AM 51.8 °F 51.8 °F 100% 30.10 in 7.0 mi North 8.1 mph - N/A   Overcast
9:55 AM 51.8 °F 50.0 °F 94% 30.10 in 7.0 mi NNW 9.2 mph - N/A   Overcast
10:15 AM 53.6 °F 51.8 °F 94% 30.10 in 7.0 mi NNW 9.2 mph - N/A   Overcast
10:35 AM 55.4 °F 51.8 °F 88% 30.10 in 10.0 mi NNW 10.4 mph - N/A   Overcast
10:55 AM 55.4 °F 50.0 °F 82% 30.09 in 10.0 mi NNW 13.8 mph - N/A   Scattered Clouds
11:15 AM 55.4 °F 50.0 °F 82% 30.10 in 10.0 mi NNW 12.7 mph - N/A   Clear
11:35 AM 55.4 °F 50.0 °F 82% 30.10 in 10.0 mi NNW 16.1 mph - N/A   Clear
11:55 AM 55.4 °F 50.0 °F 82% 30.10 in 10.0 mi NNW 19.6 mph 27.6 mph N/A   Clear
12:15 PM 55.4 °F 50.0 °F 82% 30.10 in 7.0 mi NNW 16.1 mph 24.2 mph N/A   Mostly Cloudy
12:35 PM 53.6 °F 50.0 °F 88% 30.09 in 7.0 mi North 16.1 mph 25.3 mph N/A   Mostly Cloudy
12:55 PM 57.2 °F 51.8 °F 82% - 10.0 mi NNW 15.0 mph 21.9 mph N/A   Scattered Clouds
1:15 PM 55.4 °F 51.8 °F 88% 30.09 in 10.0 mi NNW 17.3 mph 23.0 mph N/A   Clear
1:35 PM 55.4 °F 50.0 °F 82% 30.09 in 7.0 mi NNW 20.7 mph 27.6 mph N/A   Clear
1:55 PM 55.4 °F 51.8 °F 88% 30.09 in 4.0 mi North 17.3 mph - N/A   Haze
2:15 PM 55.4 °F 50.0 °F 82% 30.09 in 4.0 mi NNW 17.3 mph 24.2 mph N/A   Haze
2:35 PM 53.6 °F 50.0 °F 88% 30.08 in 1.8 mi North 17.3 mph 28.8 mph N/A   Overcast
2:55 PM 55.4 °F 51.8 °F 88% 30.08 in 2.0 mi North 18.4 mph 25.3 mph N/A   Overcast
3:15 PM 55.4 °F 51.8 °F 88% 30.08 in 5.0 mi NNW 18.4 mph 23.0 mph N/A   Haze
3:35 PM 55.4 °F 51.8 °F 88% 30.08 in 4.0 mi NNW 23.0 mph 29.9 mph N/A   Haze
3:55 PM 53.6 °F 51.8 °F 94% 30.08 in 1.2 mi NNW 25.3 mph 35.7 mph N/A   Overcast
4:15 PM 55.4 °F 51.8 °F 88% 30.07 in 2.0 mi NNW 24.2 mph 29.9 mph N/A   Overcast
4:35 PM 53.6 °F 51.8 °F 94% 30.08 in 2.5 mi North 18.4 mph 25.3 mph N/A   Overcast
4:55 PM 55.4 °F 51.8 °F 88% 30.07 in 7.0 mi NNW 18.4 mph 26.5 mph N/A   Mostly Cloudy
5:15 PM 55.4 °F 51.8 °F 88% 30.07 in 10.0 mi North 20.7 mph 26.5 mph N/A   Scattered Clouds
5:35 PM 55.4 °F 50.0 °F 82% 30.07 in 10.0 mi NNW 20.7 mph - N/A   Clear
5:55 PM 55.4 °F 50.0 °F 82% 30.07 in 10.0 mi NNW 16.1 mph 23.0 mph N/A   Clear
6:15 PM 53.6 °F 50.0 °F 88% 30.07 in 7.0 mi North 15.0 mph 21.9 mph N/A   Clear
6:35 PM 55.4 °F 50.0 °F 82% 30.06 in 7.0 mi North 19.6 mph 24.2 mph N/A   Clear
6:55 PM 53.6 °F 50.0 °F 88% 30.06 in 7.0 mi NNW 18.4 mph 25.3 mph N/A   Clear
7:15 PM 51.8 °F 50.0 °F 94% 30.07 in 5.0 mi North 15.0 mph 24.2 mph N/A   Mostly Cloudy
7:35 PM 51.8 °F 50.0 °F 94% 30.07 in 5.0 mi NNW 15.0 mph 23.0 mph N/A   Overcast
7:55 PM 51.8 °F 50.0 °F 94% 30.07 in 4.0 mi North 18.4 mph 23.0 mph N/A   Overcast
8:15 PM 51.8 °F 50.0 °F 94% 30.07 in 1.8 mi NNW 13.8 mph - N/A   Overcast
8:35 PM 51.8 °F 50.0 °F 94% 30.07 in 2.5 mi North 12.7 mph 18.4 mph N/A   Overcast
8:55 PM 50.0 °F 50.0 °F 100% 30.07 in 1.2 mi North 10.4 mph - N/A   Overcast
9:15 PM 50.0 °F 50.0 °F 100% 30.08 in 3.0 mi North 9.2 mph - N/A   Overcast
9:35 PM 50.0 °F 50.0 °F 100% 30.08 in 1.2 mi North 10.4 mph - N/A   Overcast
9:55 PM 50.0 °F 48.2 °F 94% 30.08 in 1.8 mi North 5.8 mph - N/A   Overcast
10:15 PM 48.2 °F 48.2 °F 100% 30.09 in 5.0 mi North 9.2 mph - N/A   Overcast
10:35 PM 48.2 °F 48.2 °F 100% 30.09 in 1.8 mi NNW 9.2 mph - N/A   Overcast
10:55 PM 48.2 °F 48.2 °F 100% 30.09 in 1.5 mi North 6.9 mph - N/A   Overcast
11:15 PM 48.2 °F 46.4 °F 93% 30.09 in 1.0 mi North 8.1 mph - N/A   Overcast
11:35 PM 48.2 °F 48.2 °F 100% 30.09 in 4.0 mi North 5.8 mph - N/A   Overcast
11:55 PM 48.2 °F 48.2 °F 100% 30.09 in 7.0 mi North 3.5 mph - N/A   Overcast